DW4879 Weather Reports


Display with metric or nautical units.
time (UTC)temp
F
wind
direction
speed
MPH
gust
MPH
rain 1hr
in
rain 24hr
in
rain mn
in
humidity
%
barometer
mb
20260510120058 48 113 1.0 3.0 0.00 0.00 0.00 31 1021.2
20260510115605 48 113 2.0 4.0 0.00 0.00 0.00 28 1021.0
20260510115008 49 61 0.0 2.0 0.00 0.00 0.00 24 1021.1
20260510114609 49 61 0.0 2.0 0.00 0.00 0.00 24 1021.0
20260510114007 49 61 0.0 2.0 0.00 0.00 0.00 24 1020.8
20260510113601 50 61 1.0 2.0 0.00 0.00 0.00 24 1020.8
20260510113005 50 129 0.0 2.0 0.00 0.00 0.00 25 1020.8
20260510112600 50 129 0.0 3.0 0.00 0.00 0.00 27 1020.9
20260510112051 50 129 1.0 4.0 0.00 0.00 0.00 27 1020.8
20260510111559 50 113 2.0 4.0 0.00 0.00 0.00 23 1020.7
20260510111049 51 113 1.0 3.0 0.00 0.00 0.00 23 1020.6
20260510110541 51 53 2.0 4.0 0.00 0.00 0.00 23 1020.6
20260510110049 51 77 1.0 6.0 0.00 0.00 0.00 23 1020.5
20260510105540 51 123 2.0 4.0 0.00 0.00 0.00 23 1020.6
20260510105048 51 84 2.0 5.0 0.00 0.00 0.00 23 1020.6
20260510104558 51 57 3.0 5.0 0.00 0.00 0.00 23 1020.6
20260510104100 51 46 2.0 3.0 0.00 0.00 0.00 24 1020.5
20260510103551 51 67 0.0 2.0 0.00 0.00 0.00 24 1020.4
20260510103059 51 99 0.0 2.0 0.00 0.00 0.00 24 1020.3
20260510102605 51 55 0.0 2.0 0.00 0.00 0.00 24 1020.3
20260510102012 51 55 1.0 4.0 0.00 0.00 0.00 24 1020.1
20260510101603 51 63 1.0 4.0 0.00 0.00 0.00 24 1020.1
20260510101005 51 48 2.0 4.0 0.00 0.00 0.00 26 1020.1
20260510100517 51 36 2.0 4.0 0.00 0.00 0.00 26 1020.2
20260510100105 50 41 2.0 3.0 0.00 0.00 0.00 26 1020.1
20260510095511 50 42 1.0 4.0 0.00 0.00 0.00 27 1020.1
20260510095103 50 36 2.0 4.0 0.00 0.00 0.00 28 1020.1
20260510094508 49 38 1.0 3.0 0.00 0.00 0.00 28 1020.0
20260510094105 49 30 1.0 3.0 0.00 0.00 0.00 29 1019.9
20260510093503 49 340 1.0 2.0 0.00 0.00 0.00 30 1019.9
20260510093011 49 340 0.0 2.0 0.00 0.00 0.00 30 1019.8
20260510092504 49 340 1.0 2.0 0.00 0.00 0.00 31 1019.8
20260510092012 49 340 1.0 2.0 0.00 0.00 0.00 32 1019.8
20260510091605 49 340 1.0 2.0 0.00 0.00 0.00 32 1019.7
20260510091010 50 322 0.0 2.0 0.00 0.00 0.00 33 1019.7
20260510090604 50 322 1.0 2.0 0.00 0.00 0.00 33 1019.8
20260510090054 50 327 1.0 4.0 0.00 0.00 0.00 33 1019.8
20260510085604 51 344 1.0 5.0 0.00 0.00 0.00 32 1019.7
20260510085001 51 355 2.0 6.0 0.00 0.00 0.00 32 1019.9
20260510084511 52 288 1.0 6.0 0.00 0.00 0.00 31 1019.7
20260510084106 53 266 2.0 5.0 0.00 0.00 0.00 30 1019.8
20260510083508 53 317 2.0 5.0 0.00 0.00 0.00 28 1019.6
20260510083108 54 338 2.0 5.0 0.00 0.00 0.00 28 1019.6
20260510082508 54 340 2.0 5.0 0.00 0.00 0.00 28 1019.6
20260510082103 54 360 3.0 6.0 0.00 0.00 0.00 28 1019.6
20260510081552 55 315 3.0 6.0 0.00 0.00 0.00 28 1019.7
20260510081100 55 24 4.0 7.0 0.00 0.00 0.00 28 1019.6
20260510080606 55 5 4.0 6.0 0.00 0.00 0.00 28 1019.6
20260510080006 55 16 4.0 8.0 0.00 0.00 0.00 28 1019.7
20260510075601 54 17 4.0 8.0 0.00 0.00 0.00 28 1019.7
20260510075004 54 19 2.0 5.0 0.00 0.00 0.00 29 1019.6
20260510074600 54 360 2.0 6.0 0.00 0.00 0.00 29 1019.6
20260510074106 54 13 3.0 6.0 0.00 0.00 0.00 29 1019.6
20260510073507 55 11 2.0 5.0 0.00 0.00 0.00 30 1019.6
20260510073114 55 355 2.0 4.0 0.00 0.00 0.00 30 1019.7
20260510072503 56 350 2.0 4.0 0.00 0.00 0.00 30 1019.6
20260510072101 56 312 2.0 4.0 0.00 0.00 0.00 30 1019.8
20260510071549 56 315 2.0 4.0 0.00 0.00 0.00 30 1019.7
20260510071056 56 320 2.0 6.0 0.00 0.00 0.00 29 1019.7
20260510070547 57 25 3.0 6.0 0.00 0.00 0.00 29 1019.7
20260510070056 57 344 3.0 6.0 0.00 0.00 0.00 29 1019.7
20260510065548 58 350 3.0 5.0 0.00 0.00 0.00 29 1019.6
20260510065036 58 14 3.0 4.0 0.00 0.00 0.00 28 1019.5
20260510064542 58 332 2.0 5.0 0.00 0.00 0.00 28 1019.4
20260510064048 59 329 2.0 5.0 0.00 0.00 0.00 28 1019.3
20260510063555 59 351 3.0 8.0 0.00 0.00 0.00 28 1019.3
20260510063050 60 348 3.0 8.0 0.00 0.00 0.00 27 1019.2
20260510062554 60 333 3.0 6.0 0.00 0.00 0.00 27 1019.1
20260510062059 61 345 3.0 8.0 0.00 0.00 0.00 27 1019.1
20260510061508 61 346 4.0 9.0 0.00 0.00 0.00 26 1019.0
20260510061058 61 360 4.0 9.0 0.00 0.00 0.00 26 1018.9
20260510060605 62 345 3.0 10.0 0.00 0.00 0.00 25 1018.9
20260510060055 62 5 4.0 10.0 0.00 0.00 0.00 25 1018.8
20260510055600 63 12 5.0 11.0 0.00 0.00 0.00 24 1018.9
20260510055001 64 15 8.0 11.0 0.00 0.00 0.00 24 1018.9
20260510054509 65 22 3.0 6.0 0.00 0.00 0.00 23 1018.8
20260510054105 65 19 3.0 6.0 0.00 0.00 0.00 23 1018.8
20260510053508 66 338 2.0 4.0 0.00 0.00 0.00 22 1018.8
20260510053103 67 324 2.0 4.0 0.00 0.00 0.00 22 1018.8
20260510052504 67 306 2.0 4.0 0.00 0.00 0.00 22 1018.8
20260510052011 68 278 1.0 3.0 0.00 0.00 0.00 22 1018.7
20260510051506 68 242 1.0 3.0 0.00 0.00 0.00 21 1018.7
20260510051011 68 256 0.0 2.0 0.00 0.00 0.00 21 1018.7
20260510050603 68 242 0.0 3.0 0.00 0.00 0.00 21 1018.8
20260510050005 68 229 1.0 3.0 0.00 0.00 0.00 21 1018.8
20260510045519 68 277 0.0 5.0 0.00 0.00 0.00 21 1018.8
20260510045018 68 240 0.0 5.0 0.00 0.00 0.00 20 1018.8
20260510044524 68 223 1.0 5.0 0.00 0.00 0.00 20 1018.7
20260510044028 69 229 2.0 5.0 0.00 0.00 0.00 20 1018.8
20260510043537 69 224 1.0 8.0 0.00 0.00 0.00 20 1018.7
20260510043043 69 196 2.0 8.0 0.00 0.00 0.00 20 1018.8
20260510042550 69 225 2.0 7.0 0.00 0.00 0.00 20 1018.7
20260510042041 69 208 3.0 8.0 0.00 0.00 0.00 20 1018.9
20260510041551 70 209 1.0 8.0 0.00 0.00 0.00 20 1018.9
20260510041056 70 265 3.0 8.0 0.00 0.00 0.00 20 1018.7
20260510040605 70 254 2.0 10.0 0.00 0.00 0.00 19 1018.7
20260510040004 70 213 3.0 10.0 0.00 0.00 0.00 19 1018.8
20260510035511 70 290 4.0 10.0 0.00 0.00 0.00 19 1018.8
20260510035002 70 295 3.0 5.0 0.00 0.00 0.00 20 1018.7
20260510034559 70 292 3.0 8.0 0.00 0.00 0.00 20 1018.8
20260510034106 70 290 3.0 10.0 0.00 0.00 0.00 20 1018.7
20260510033508 70 259 3.0 8.0 0.00 0.00 0.00 20 1018.7
20260510033020 71 222 1.0 12.0 0.00 0.00 0.00 20 1018.7
20260510032521 71 255 5.0 12.0 0.00 0.00 0.00 20 1018.7
20260510032026 71 236 5.0 18.0 0.00 0.00 0.00 20 1018.8
20260510031531 71 259 6.0 20.0 0.00 0.00 0.00 20 1018.8
20260510031039 71 264 8.0 19.0 0.00 0.00 0.00 19 1018.9
20260510030545 71 315 10.0 19.0 0.00 0.00 0.00 19 1018.9
20260510030053 71 286 10.0 24.0 0.00 0.00 0.00 19 1018.8
20260510025544 71 321 14.0 24.0 0.00 0.00 0.00 18 1018.7
20260510025052 71 322 11.0 19.0 0.00 0.00 0.00 19 1018.6
20260510024543 71 314 10.0 17.0 0.00 0.00 0.00 19 1018.4
20260510024033 71 311 10.0 17.0 0.00 0.00 0.00 19 1018.4
20260510023540 71 314 10.0 16.0 0.00 0.00 0.00 19 1018.4
20260510023046 71 348 9.0 17.0 0.00 0.00 0.00 19 1018.3
20260510022554 71 334 9.0 19.0 0.00 0.00 0.00 19 1018.2
20260510022045 71 326 12.0 20.0 0.00 0.00 0.00 19 1018.0
20260510021553 70 350 13.0 20.0 0.00 0.00 0.00 20 1017.9
20260510021058 70 5 8.0 14.0 0.00 0.00 0.00 20 1017.9
20260510020501 71 10 7.0 18.0 0.00 0.00 0.00 20 1017.8
20260510020002 71 345 8.0 18.0 0.00 0.00 0.00 20 1017.8
20260510015510 71 334 9.0 18.0 0.00 0.00 0.00 20 1017.8
20260510015106 71 339 8.0 17.0 0.00 0.00 0.00 20 1017.7
20260510014508 72 13 9.0 16.0 0.00 0.00 0.00 19 1017.6
20260510014102 72 347 9.0 26.0 0.00 0.00 0.00 19 1017.5
20260510013504 73 27 15.0 26.0 0.00 0.00 0.00 19 1017.5
20260510013008 73 360 13.0 19.0 0.00 0.00 0.00 18 1017.4
20260510012604 74 342 11.0 18.0 0.00 0.00 0.00 18 1017.3
20260510012005 74 329 10.0 19.0 0.00 0.00 0.00 17 1017.1
20260510011601 74 319 10.0 19.0 0.00 0.00 0.00 17 1017.0
20260510011051 74 307 9.0 17.0 0.00 0.00 0.00 17 1016.9
20260510010559 74 360 10.0 17.0 0.00 0.00 0.00 18 1016.9
20260510010050 74 321 8.0 15.0 0.00 0.00 0.00 19 1016.9
20260510005558 74 360 9.0 16.0 0.00 0.00 0.00 19 1016.9
20260510005048 75 360 10.0 20.0 0.00 0.00 0.00 19 1016.9
20260510004538 75 329 11.0 20.0 0.00 0.00 0.00 18 1016.9
20260510004046 76 15 14.0 20.0 0.00 0.00 0.00 18 1016.8
20260510003537 76 5 10.0 20.0 0.00 0.00 0.00 18 1016.8
20260510003056 76 338 14.0 22.0 0.00 0.00 0.00 18 1017.2
20260510002550 76 36 12.0 22.0 0.00 0.00 0.00 18 1017.0
20260510002058 75 329 13.0 20.0 0.00 0.00 0.00 19 1017.1
20260510001549 75 331 13.0 20.0 0.00 0.00 0.00 19 1016.9
20260510001057 75 338 11.0 21.0 0.00 0.00 0.00 19 1016.7
20260510000605 75 25 12.0 21.0 0.00 0.00 0.00 19 1016.8
20260510000008 74 349 10.0 21.0 0.00 0.00 0.00 20 1016.9
20260509235601 74 340 12.0 24.0 0.00 0.00 0.00 20 1016.8
20260509235003 75 22 16.0 26.0 0.00 0.00 0.00 20 1017.0
20260509234614 75 355 16.0 26.0 0.00 0.00 0.00 19 1016.7
20260509234105 76 336 15.0 22.0 0.00 0.00 0.00 19 1016.8
20260509233558 76 5 14.0 24.0 0.00 0.00 0.00 18 1016.8
20260509233104 77 33 15.0 24.0 0.00 0.00 0.00 17 1016.8
20260509232505 78 329 17.0 24.0 0.00 0.00 0.00 17 1016.8
20260509232017 78 338 13.0 21.0 0.00 0.00 0.00 16 1016.7
20260509231519 79 348 10.0 26.0 0.00 0.00 0.00 12 1016.5
20260509231024 79 348 16.0 27.0 0.00 0.00 0.00 12 1016.6
20260509230532 80 296 10.0 28.0 0.00 0.00 0.00 12 1016.5
20260509230046 80 297 11.0 28.0 0.00 0.00 0.00 12 1016.6
20260509225547 80 295 14.0 25.0 0.00 0.00 0.00 12 1016.5
20260509225036 80 327 12.0 26.0 0.00 0.00 0.00 12 1016.5
20260509224554 80 321 18.0 26.0 0.00 0.00 0.00 12 1016.5
20260509224037 80 317 14.0 20.0 0.00 0.00 0.00 12 1016.6
20260509223541 81 290 12.0 20.0 0.00 0.00 0.00 11 1016.6
20260509223052 81 310 11.0 27.0 0.00 0.00 0.00 11 1016.6
20260509222558 81 314 10.0 27.0 0.00 0.00 0.00 11 1016.7
20260509222046 81 292 14.0 28.0 0.00 0.00 0.00 11 1016.8
20260509221553 81 300 15.0 28.0 0.00 0.00 0.00 12 1016.9
20260509221059 81 309 11.0 22.0 0.00 0.00 0.00 12 1016.9
20260509220605 81 337 11.0 23.0 0.00 0.00 0.00 12 1017.0
20260509220058 81 292 15.0 23.0 0.00 0.00 0.00 11 1016.9
20260509215549 81 303 15.0 21.0 0.00 0.00 0.00 11 1017.1
20260509215057 81 267 10.0 24.0 0.00 0.00 0.00 10 1017.1
20260509214548 81 303 16.0 24.0 0.00 0.00 0.00 11 1017.1
20260509214059 81 315 13.0 23.0 0.00 0.00 0.00 9 1017.2
20260509213544 81 306 15.0 23.0 0.00 0.00 0.00 11 1017.3
20260509213054 82 273 15.0 22.0 0.00 0.00 0.00 10 1017.3
20260509212558 81 319 9.0 20.0 0.00 0.00 0.00 11 1017.4
20260509212048 80 262 11.0 20.0 0.00 0.00 0.00 9 1017.4
20260509211557 80 296 11.0 20.0 0.00 0.00 0.00 12 1017.4
20260509211102 80 307 12.0 22.0 0.00 0.00 0.00 11 1017.7
20260509210505 80 285 13.0 22.0 0.00 0.00 0.00 10 1017.7
20260509210104 80 303 10.0 20.0 0.00 0.00 0.00 12 1017.7
20260509205503 80 299 12.0 18.0 0.00 0.00 0.00 12 1017.7
20260509205010 81 317 11.0 26.0 0.00 0.00 0.00 10 1017.7
20260509204517 81 313 17.0 27.0 0.00 0.00 0.00 11 1017.7
20260509204023 82 294 16.0 27.0 0.00 0.00 0.00 10 1017.7
20260509203530 82 288 12.0 21.0 0.00 0.00 0.00 11 1017.7
20260509203050 82 276 11.0 21.0 0.00 0.00 0.00 11 1017.7
20260509202545 82 278 10.0 26.0 0.00 0.00 0.00 11 1017.8
20260509202035 82 288 16.0 26.0 0.00 0.00 0.00 11 1017.9
20260509201543 82 275 8.0 19.0 0.00 0.00 0.00 12 1017.8
20260509201048 81 281 10.0 20.0 0.00 0.00 0.00 13 1018.2
20260509200556 81 232 7.0 19.0 0.00 0.00 0.00 13 1018.1
20260509200047 80 286 12.0 21.0 0.00 0.00 0.00 13 1018.4
20260509195557 81 277 12.0 21.0 0.00 0.00 0.00 13 1018.2
20260509195101 81 265 8.0 16.0 0.00 0.00 0.00 13 1018.3
20260509194502 80 317 9.0 21.0 0.00 0.00 0.00 13 1018.4
20260509194058 81 338 14.0 21.0 0.00 0.00 0.00 13 1018.4
20260509193502 81 286 6.0 15.0 0.00 0.00 0.00 13 1018.4
20260509193057 80 198 9.0 20.0 0.00 0.00 0.00 14 1018.5
20260509192547 80 267 12.0 20.0 0.00 0.00 0.00 14 1018.7
20260509192056 80 289 9.0 21.0 0.00 0.00 0.00 14 1018.5
20260509191548 81 241 9.0 21.0 0.00 0.00 0.00 13 1018.5
20260509191055 81 324 7.0 19.0 0.00 0.00 0.00 14 1018.6
20260509190545 80 238 10.0 19.0 0.00 0.00 0.00 14 1018.7
20260509190036 80 300 12.0 22.0 0.00 0.00 0.00 14 1018.6
20260509185543 80 304 8.0 22.0 0.00 0.00 0.00 14 1018.9
20260509185034 80 218 6.0 20.0 0.00 0.00 0.00 14 1019.0
20260509184547 79 265 7.0 18.0 0.00 0.00 0.00 14 1019.0
20260509184047 79 293 8.0 18.0 0.00 0.00 0.00 14 1019.1
20260509183557 79 268 12.0 18.0 0.00 0.00 0.00 15 1019.1
20260509183047 79 293 12.0 17.0 0.00 0.00 0.00 14 1019.1
20260509182554 80 316 8.0 16.0 0.00 0.00 0.00 14 1019.1
20260509182100 80 295 8.0 16.0 0.00 0.00 0.00 14 1019.1
20260509181503 81 234 6.0 14.0 0.00 0.00 0.00 14 1019.1
20260509181059 80 203 4.0 11.0 0.00 0.00 0.00 15 1019.1
20260509180500 79 273 5.0 11.0 0.00 0.00 0.00 15 1019.2
20260509180117 79 287 6.0 11.0 0.00 0.00 0.00 15 1019.3
20260509175505 79 234 5.0 10.0 0.00 0.00 0.00 15 1019.3
20260509175104 79 225 4.0 10.0 0.00 0.00 0.00 16 1019.3
20260509174504 78 223 6.0 14.0 0.00 0.00 0.00 16 1019.3
20260509174011 78 280 4.0 14.0 0.00 0.00 0.00 16 1019.3
20260509173502 78 232 3.0 10.0 0.00 0.00 0.00 17 1019.5
20260509173009 77 229 4.0 16.0 0.00 0.00 0.00 16 1019.6
20260509172605 77 240 8.0 16.0 0.00 0.00 0.00 16 1019.6
20260509172006 76 216 2.0 11.0 0.00 0.00 0.00 17 1019.7
20260509171601 76 254 5.0 11.0 0.00 0.00 0.00 17 1019.7
20260509171051 75 245 4.0 10.0 0.00 0.00 0.00 18 1019.6
20260509170600 75 331 4.0 10.0 0.00 0.00 0.00 18 1019.6
20260509170105 75 221 4.0 11.0 0.00 0.00 0.00 18 1019.7
20260509165507 74 298 5.0 10.0 0.00 0.00 0.00 19 1019.6
20260509165103 74 246 5.0 12.0 0.00 0.00 0.00 19 1019.7
20260509164507 74 293 4.0 8.0 0.00 0.00 0.00 19 1019.7
20260509164104 73 296 1.0 8.0 0.00 0.00 0.00 19 1019.7
20260509163504 73 200 5.0 7.0 0.00 0.00 0.00 21 1019.7
20260509163059 72 225 3.0 9.0 0.00 0.00 0.00 21 1019.8
20260509162550 72 191 4.0 9.0 0.00 0.00 0.00 21 1019.8
20260509162059 72 202 2.0 9.0 0.00 0.00 0.00 20 1019.9
20260509161604 71 284 1.0 9.0 0.00 0.00 0.00 21 1019.9
20260509161010 70 269 2.0 9.0 0.00 0.00 0.00 21 1019.8
20260509160603 70 249 1.0 6.0 0.00 0.00 0.00 21 1019.8
20260509160006 70 281 2.0 6.0 0.00 0.00 0.00 22 1019.8
20260509155600 69 294 2.0 5.0 0.00 0.00 0.00 22 1019.9
20260509155003 68 273 2.0 5.0 0.00 0.00 0.00 22 1019.9
20260509154609 68 184 1.0 5.0 0.00 0.00 0.00 23 1019.9
20260509154049 67 244 1.0 4.0 0.00 0.00 0.00 23 1019.9
20260509153559 67 206 2.0 4.0 0.00 0.00 0.00 25 1019.9
20260509153058 66 157 2.0 4.0 0.00 0.00 0.00 25 1019.8
20260509152537 65 79 1.0 4.0 0.00 0.00 0.00 25 1019.9
20260509152048 65 227 1.0 4.0 0.00 0.00 0.00 25 1019.8
20260509151600 64 111 2.0 5.0 0.00 0.00 0.00 25 1019.9
20260509151055 63 151 1.0 6.0 0.00 0.00 0.00 26 1019.9
20260509150604 63 104 2.0 6.0 0.00 0.00 0.00 26 1019.9
20260509150004 62 160 3.0 6.0 0.00 0.00 0.00 27 1019.9
20260509145600 62 136 2.0 6.0 0.00 0.00 0.00 27 1019.9
20260509145003 62 132 2.0 5.0 0.00 0.00 0.00 28 1019.9
20260509144558 61 154 2.0 6.0 0.00 0.00 0.00 28 1019.9
20260509144104 61 110 2.0 6.0 0.00 0.00 0.00 28 1019.8
20260509143555 60 112 3.0 6.0 0.00 0.00 0.00 28 1019.8
20260509143054 60 140 2.0 5.0 0.00 0.00 0.00 29 1019.9
20260509142553 59 130 3.0 7.0 0.00 0.00 0.00 30 1020.0
20260509142100 59 124 3.0 7.0 0.00 0.00 0.00 30 1019.9
20260509141510 58 153 3.0 5.0 0.00 0.00 0.00 30 1019.8
20260509141059 58 117 2.0 4.0 0.00 0.00 0.00 30 1019.9
20260509140500 57 113 3.0 6.0 0.00 0.00 0.00 31 1019.8
20260509140006 57 132 2.0 5.0 0.00 0.00 0.00 31 1019.8
20260509135515 56 103 3.0 5.0 0.00 0.00 0.00 31 1019.7
20260509135005 56 133 3.0 5.0 0.00 0.00 0.00 31 1019.7
20260509134524 55 140 3.0 6.0 0.00 0.00 0.00 32 1019.7
20260509134004 55 115 2.0 6.0 0.00 0.00 0.00 33 1019.6
20260509133510 54 109 3.0 7.0 0.00 0.00 0.00 33 1019.6
20260509133019 54 114 4.0 7.0 0.00 0.00 0.00 33 1019.6
20260509132522 53 128 3.0 7.0 0.00 0.00 0.00 33 1019.6
20260509132029 53 121 3.0 7.0 0.00 0.00 0.00 34 1019.6
20260509131536 53 117 4.0 7.0 0.00 0.00 0.00 34 1019.6
20260509131043 52 103 5.0 7.0 0.00 0.00 0.00 34 1019.5
20260509130534 52 115 2.0 6.0 0.00 0.00 0.00 35 1019.4
20260509130042 51 128 3.0 6.0 0.00 0.00 0.00 35 1019.3
20260509125548 51 113 3.0 7.0 0.00 0.00 0.00 36 1019.2
20260509125056 50 103 2.0 5.0 0.00 0.00 0.00 37 1019.1
20260509124601 50 103 2.0 6.0 0.00 0.00 0.00 37 1019.1
20260509124003 49 90 3.0 6.0 0.00 0.00 0.00 37 1019.0
20260509123601 49 98 3.0 6.0 0.00 0.00 0.00 37 1018.9
20260509123005 49 120 3.0 7.0 0.00 0.00 0.00 37 1018.8
20260509122558 49 104 3.0 7.0 0.00 0.00 0.00 37 1018.8
20260509122105 49 107 4.0 6.0 0.00 0.00 0.00 37 1018.7
20260509121556 49 94 4.0 6.0 0.00 0.00 0.00 37 1018.6
20260509121048 49 95 3.0 4.0 0.00 0.00 0.00 37 1018.5
20260509120554 49 110 2.0 3.0 0.00 0.00 0.00 37 1018.6